| time (UTC) | temp C | wind direction | speed KPH | gust KPH | rain 1hr cm | rain 24hr cm | rain mn cm | humidity % | barometer mb |
| 20260504004856 | 11 | 249 | 0.0 | 0.0 | 0.00 | 0.00 | 0.00 | 47 | 1011.4 |
| 20260504004752 | 11 | 249 | 0.0 | 0.0 | 0.00 | 0.00 | 0.00 | 46 | 1011.4 |
| 20260504004653 | 11 | 249 | 0.0 | 0.0 | 0.00 | 0.00 | 0.00 | 46 | 1011.4 |
| 20260504004552 | 11 | 249 | 0.0 | 0.0 | 0.00 | 0.00 | 0.00 | 46 | 1011.4 |
| 20260504004510 | 11 | 249 | 0.0 | 0.0 | 0.00 | 0.00 | 0.00 | 45 | 1011.4 |
| 20260504004251 | 12 | 249 | 0.0 | 0.0 | 0.00 | 0.00 | 0.00 | 45 | 1011.4 |
| 20260504004150 | 12 | 249 | 0.0 | 0.0 | 0.00 | 0.00 | 0.00 | 44 | 1011.3 |
| 20260504004050 | 12 | 249 | 0.0 | 0.0 | 0.00 | 0.00 | 0.00 | 44 | 1011.4 |
| 20260504003949 | 12 | 249 | 0.0 | 0.0 | 0.00 | 0.00 | 0.00 | 44 | 1011.3 |
| 20260504003850 | 12 | 249 | 0.0 | 0.0 | 0.00 | 0.00 | 0.00 | 43 | 1011.3 |
| 20260504003748 | 12 | 249 | 0.0 | 0.0 | 0.00 | 0.00 | 0.00 | 43 | 1011.3 |
| 20260504003651 | 12 | 249 | 0.0 | 0.0 | 0.00 | 0.00 | 0.00 | 42 | 1011.3 |
| 20260504003549 | 12 | 249 | 0.0 | 0.0 | 0.00 | 0.00 | 0.00 | 42 | 1011.3 |
| 20260504003450 | 12 | 249 | 0.0 | 0.0 | 0.00 | 0.00 | 0.00 | 42 | 1011.3 |
| 20260504003346 | 12 | 249 | 0.0 | 0.0 | 0.00 | 0.00 | 0.00 | 41 | 1011.2 |
| 20260504003248 | 12 | 249 | 0.0 | 0.0 | 0.00 | 0.00 | 0.00 | 41 | 1011.2 |
| 20260504003144 | 12 | 249 | 0.0 | 0.0 | 0.00 | 0.00 | 0.00 | 41 | 1011.2 |
| 20260504003046 | 12 | 249 | 0.0 | 0.0 | 0.00 | 0.00 | 0.00 | 40 | 1011.2 |
| 20260504002945 | 12 | 249 | 0.0 | 0.0 | 0.00 | 0.00 | 0.00 | 41 | 1011.2 |
| 20260504002844 | 12 | 249 | 0.0 | 0.0 | 0.00 | 0.00 | 0.00 | 40 | 1011.1 |
| 20260504002743 | 12 | 249 | 0.0 | 0.0 | 0.00 | 0.00 | 0.00 | 40 | 1011.1 |
| 20260504002658 | 12 | 249 | 0.0 | 1.6 | 0.00 | 0.00 | 0.00 | 40 | 1011.1 |
| 20260504002443 | 13 | 249 | 0.0 | 1.6 | 0.00 | 0.00 | 0.00 | 40 | 1011.1 |
| 20260504002343 | 13 | 249 | 0.0 | 3.2 | 0.00 | 0.00 | 0.00 | 40 | 1011.1 |
| 20260504002242 | 13 | 249 | 0.0 | 3.2 | 0.00 | 0.00 | 0.00 | 40 | 1011.1 |
| 20260504002143 | 13 | 249 | 0.0 | 3.2 | 0.00 | 0.00 | 0.00 | 40 | 1011.1 |
| 20260504002040 | 13 | 249 | 0.0 | 3.2 | 0.00 | 0.00 | 0.00 | 40 | 1011.1 |
| 20260504001940 | 13 | 249 | 0.0 | 3.2 | 0.00 | 0.00 | 0.00 | 40 | 1011.1 |
| 20260504001840 | 13 | 249 | 0.0 | 3.2 | 0.00 | 0.00 | 0.00 | 40 | 1011.0 |
| 20260504001740 | 13 | 249 | 0.0 | 3.2 | 0.00 | 0.00 | 0.00 | 40 | 1011.0 |
| 20260504001639 | 13 | 249 | 0.0 | 3.2 | 0.00 | 0.00 | 0.00 | 39 | 1011.0 |
| 20260504001553 | 13 | 249 | 0.0 | 3.2 | 0.00 | 0.00 | 0.00 | 39 | 1011.0 |
| 20260504001337 | 13 | 249 | 0.0 | 3.2 | 0.00 | 0.00 | 0.00 | 39 | 1011.0 |
| 20260504001236 | 13 | 249 | 0.0 | 3.2 | 0.00 | 0.00 | 0.00 | 39 | 1011.0 |
| 20260504001152 | 13 | 249 | 1.6 | 3.2 | 0.00 | 0.00 | 0.00 | 39 | 1010.9 |
| 20260504000933 | 13 | 249 | 1.6 | 4.8 | 0.00 | 0.00 | 0.00 | 38 | 1010.9 |
| 20260504000833 | 13 | 249 | 1.6 | 4.8 | 0.00 | 0.00 | 0.00 | 38 | 1010.9 |
| 20260504000734 | 13 | 249 | 1.6 | 4.8 | 0.00 | 0.00 | 0.00 | 37 | 1010.9 |
| 20260504000633 | 13 | 249 | 1.6 | 4.8 | 0.00 | 0.00 | 0.00 | 38 | 1010.9 |
| 20260504000547 | 13 | 249 | 1.6 | 4.8 | 0.00 | 0.00 | 0.00 | 37 | 1010.9 |
| 20260504000346 | 13 | 249 | 1.6 | 4.8 | 0.00 | 0.00 | 0.00 | 37 | 1010.8 |
| 20260504000130 | 13 | 249 | 1.6 | 4.8 | 0.00 | 0.00 | 0.00 | 37 | 1010.8 |
| 20260504000031 | 13 | 249 | 1.6 | 9.7 | 0.00 | 0.00 | 0.00 | 37 | 1010.8 |
| 20260503235945 | 13 | 249 | 1.6 | 9.7 | 0.00 | 0.00 | 0.00 | 37 | 1010.8 |
| 20260503235746 | 13 | 249 | 1.6 | 9.7 | 0.00 | 0.00 | 0.00 | 37 | 1010.8 |
| 20260503235529 | 13 | 249 | 1.6 | 9.7 | 0.00 | 0.00 | 0.00 | 36 | 1010.7 |
| 20260503235427 | 13 | 249 | 1.6 | 9.7 | 0.00 | 0.00 | 0.00 | 36 | 1010.7 |
| 20260503235328 | 13 | 249 | 3.2 | 9.7 | 0.00 | 0.00 | 0.00 | 37 | 1010.7 |
| 20260503235228 | 14 | 249 | 3.2 | 9.7 | 0.00 | 0.00 | 0.00 | 36 | 1010.7 |
| 20260503235127 | 14 | 249 | 3.2 | 9.7 | 0.00 | 0.00 | 0.00 | 36 | 1010.7 |
| 20260503235025 | 14 | 254 | 1.6 | 8.0 | 0.00 | 0.00 | 0.00 | 37 | 1010.7 |
| 20260503234925 | 14 | 248 | 3.2 | 6.4 | 0.00 | 0.00 | 0.00 | 36 | 1010.7 |
| 20260503234826 | 14 | 248 | 1.6 | 6.4 | 0.00 | 0.00 | 0.00 | 36 | 1010.6 |
| 20260503234725 | 14 | 250 | 3.2 | 6.4 | 0.00 | 0.00 | 0.00 | 36 | 1010.6 |
| 20260503234640 | 14 | 250 | 3.2 | 6.4 | 0.00 | 0.00 | 0.00 | 36 | 1010.6 |
| 20260503234424 | 14 | 249 | 3.2 | 6.4 | 0.00 | 0.00 | 0.00 | 36 | 1010.6 |
| 20260503234323 | 14 | 242 | 3.2 | 6.4 | 0.00 | 0.00 | 0.00 | 37 | 1010.5 |
| 20260503234223 | 14 | 242 | 3.2 | 9.7 | 0.00 | 0.00 | 0.00 | 36 | 1010.5 |
| 20260503234123 | 14 | 242 | 3.2 | 9.7 | 0.00 | 0.00 | 0.00 | 36 | 1010.5 |
| 20260503234037 | 14 | 242 | 3.2 | 9.7 | 0.00 | 0.00 | 0.00 | 36 | 1010.5 |
| 20260503233824 | 14 | 240 | 3.2 | 12.9 | 0.00 | 0.00 | 0.00 | 36 | 1010.5 |
| 20260503233723 | 14 | 240 | 3.2 | 12.9 | 0.00 | 0.00 | 0.00 | 36 | 1010.5 |
| 20260503233637 | 14 | 240 | 3.2 | 12.9 | 0.00 | 0.00 | 0.00 | 35 | 1010.5 |
| 20260503233424 | 14 | 240 | 3.2 | 12.9 | 0.00 | 0.00 | 0.00 | 35 | 1010.5 |
| 20260503233322 | 14 | 240 | 3.2 | 12.9 | 0.00 | 0.00 | 0.00 | 35 | 1010.5 |
| 20260503233224 | 14 | 271 | 3.2 | 12.9 | 0.00 | 0.00 | 0.00 | 35 | 1010.4 |
| 20260503233122 | 14 | 271 | 1.6 | 12.9 | 0.00 | 0.00 | 0.00 | 35 | 1010.4 |
| 20260503233041 | 14 | 274 | 1.6 | 12.9 | 0.00 | 0.00 | 0.00 | 34 | 1010.4 |
| 20260503232823 | 14 | 249 | 1.6 | 3.2 | 0.00 | 0.00 | 0.00 | 36 | 1010.4 |
| 20260503232724 | 15 | 249 | 1.6 | 3.2 | 0.00 | 0.00 | 0.00 | 36 | 1010.4 |
| 20260503232639 | 15 | 249 | 1.6 | 3.2 | 0.00 | 0.00 | 0.00 | 37 | 1010.4 |
| 20260503232454 | 15 | 249 | 1.6 | 6.4 | 0.00 | 0.00 | 0.00 | 35 | 1010.3 |
| 20260503232139 | 15 | 249 | 0.0 | 6.4 | 0.00 | 0.00 | 0.00 | 36 | 1010.3 |
| 20260503231922 | 15 | 249 | 0.0 | 6.4 | 0.00 | 0.00 | 0.00 | 35 | 1010.3 |
| 20260503231839 | 15 | 249 | 0.0 | 6.4 | 0.00 | 0.00 | 0.00 | 34 | 1010.4 |
| 20260503231622 | 15 | 249 | 0.0 | 6.4 | 0.00 | 0.00 | 0.00 | 35 | 1010.4 |
| 20260503231524 | 15 | 285 | 0.0 | 6.4 | 0.00 | 0.00 | 0.00 | 35 | 1010.4 |
| 20260503231422 | 15 | 285 | 1.6 | 6.4 | 0.00 | 0.00 | 0.00 | 36 | 1010.3 |
| 20260503231323 | 15 | 286 | 1.6 | 6.4 | 0.00 | 0.00 | 0.00 | 36 | 1010.4 |
| 20260503231222 | 15 | 286 | 1.6 | 6.4 | 0.00 | 0.00 | 0.00 | 35 | 1010.3 |
| 20260503231122 | 15 | 286 | 1.6 | 6.4 | 0.00 | 0.00 | 0.00 | 36 | 1010.3 |
| 20260503231024 | 15 | 286 | 1.6 | 6.4 | 0.00 | 0.00 | 0.00 | 34 | 1010.3 |
| 20260503230924 | 15 | 286 | 1.6 | 6.4 | 0.00 | 0.00 | 0.00 | 34 | 1010.2 |
| 20260503230824 | 15 | 286 | 3.2 | 8.0 | 0.00 | 0.00 | 0.00 | 34 | 1010.3 |
| 20260503230724 | 15 | 286 | 3.2 | 8.0 | 0.00 | 0.00 | 0.00 | 34 | 1010.3 |
| 20260503230623 | 15 | 286 | 3.2 | 11.3 | 0.00 | 0.00 | 0.00 | 33 | 1010.2 |
| 20260503230523 | 15 | 279 | 3.2 | 11.3 | 0.00 | 0.00 | 0.00 | 34 | 1010.2 |
| 20260503230424 | 15 | 242 | 3.2 | 11.3 | 0.00 | 0.00 | 0.00 | 33 | 1010.3 |
| 20260503230324 | 15 | 242 | 3.2 | 11.3 | 0.00 | 0.00 | 0.00 | 33 | 1010.3 |
| 20260503230223 | 15 | 242 | 3.2 | 11.3 | 0.00 | 0.00 | 0.00 | 33 | 1010.3 |
| 20260503230139 | 15 | 242 | 3.2 | 11.3 | 0.00 | 0.00 | 0.00 | 33 | 1010.3 |
| 20260503225922 | 15 | 239 | 3.2 | 11.3 | 0.00 | 0.00 | 0.00 | 33 | 1010.2 |
| 20260503225825 | 15 | 247 | 3.2 | 11.3 | 0.00 | 0.00 | 0.00 | 33 | 1010.2 |
| 20260503225809 | 15 | 257 | 3.2 | 11.3 | 0.00 | 0.00 | 0.00 | 33 | 1010.2 |
| 20260503225322 | 15 | 245 | 3.2 | 14.5 | 0.00 | 0.00 | 0.00 | 33 | 1010.2 |
| 20260503225255 | 15 | 245 | 3.2 | 14.5 | 0.00 | 0.00 | 0.00 | 33 | 1010.2 |
| 20260503224938 | 15 | 246 | 4.8 | 14.5 | 0.00 | 0.00 | 0.00 | 33 | 1010.2 |
| 20260503224740 | 15 | 318 | 4.8 | 14.5 | 0.00 | 0.00 | 0.00 | 33 | 1010.2 |
| 20260503224523 | 15 | 317 | 4.8 | 17.7 | 0.00 | 0.00 | 0.00 | 32 | 1010.2 |
| 20260503224423 | 15 | 272 | 4.8 | 17.7 | 0.00 | 0.00 | 0.00 | 33 | 1010.2 |
| 20260503224325 | 15 | 244 | 4.8 | 17.7 | 0.00 | 0.00 | 0.00 | 32 | 1010.1 |
| 20260503224224 | 15 | 263 | 4.8 | 17.7 | 0.00 | 0.00 | 0.00 | 32 | 1010.1 |
| 20260503224139 | 15 | 269 | 6.4 | 17.7 | 0.00 | 0.00 | 0.00 | 32 | 1010.1 |
| 20260503223922 | 15 | 285 | 6.4 | 19.3 | 0.00 | 0.00 | 0.00 | 34 | 1010.0 |
| 20260503223824 | 15 | 328 | 6.4 | 19.3 | 0.00 | 0.00 | 0.00 | 33 | 1010.0 |
| 20260503223722 | 15 | 270 | 6.4 | 19.3 | 0.00 | 0.00 | 0.00 | 32 | 1010.1 |
| 20260503223623 | 15 | 323 | 6.4 | 19.3 | 0.00 | 0.00 | 0.00 | 33 | 1010.1 |
| 20260503223522 | 15 | 268 | 6.4 | 19.3 | 0.00 | 0.00 | 0.00 | 32 | 1010.0 |
| 20260503223455 | 15 | 329 | 6.4 | 19.3 | 0.00 | 0.00 | 0.00 | 32 | 1010.1 |
| 20260503223124 | 15 | 251 | 6.4 | 19.3 | 0.00 | 0.00 | 0.00 | 33 | 1009.9 |
| 20260503223024 | 15 | 252 | 8.0 | 19.3 | 0.00 | 0.00 | 0.00 | 31 | 1010.0 |
| 20260503222924 | 15 | 246 | 6.4 | 19.3 | 0.00 | 0.00 | 0.00 | 31 | 1010.0 |
| 20260503222824 | 15 | 265 | 6.4 | 17.7 | 0.00 | 0.00 | 0.00 | 32 | 1010.0 |
| 20260503222722 | 15 | 246 | 6.4 | 17.7 | 0.00 | 0.00 | 0.00 | 32 | 1010.1 |
| 20260503222624 | 15 | 302 | 6.4 | 17.7 | 0.00 | 0.00 | 0.00 | 32 | 1010.0 |
| 20260503222525 | 15 | 272 | 6.4 | 17.7 | 0.00 | 0.00 | 0.00 | 32 | 1010.0 |
| 20260503222440 | 15 | 253 | 6.4 | 17.7 | 0.00 | 0.00 | 0.00 | 31 | 1010.0 |
| 20260503222224 | 15 | 246 | 4.8 | 19.3 | 0.00 | 0.00 | 0.00 | 32 | 1010.1 |
| 20260503222122 | 15 | 326 | 6.4 | 19.3 | 0.00 | 0.00 | 0.00 | 31 | 1010.1 |
| 20260503222023 | 15 | 304 | 6.4 | 19.3 | 0.00 | 0.00 | 0.00 | 33 | 1010.0 |
| 20260503221923 | 15 | 275 | 6.4 | 19.3 | 0.00 | 0.00 | 0.00 | 32 | 1010.1 |
| 20260503221823 | 15 | 261 | 4.8 | 19.3 | 0.00 | 0.00 | 0.00 | 32 | 1010.1 |
| 20260503221722 | 15 | 239 | 4.8 | 19.3 | 0.00 | 0.00 | 0.00 | 31 | 1010.1 |
| 20260503221639 | 16 | 271 | 4.8 | 19.3 | 0.00 | 0.00 | 0.00 | 31 | 1010.1 |
| 20260503221439 | 16 | 273 | 4.8 | 19.3 | 0.00 | 0.00 | 0.00 | 31 | 1010.0 |
| 20260503221222 | 16 | 28 | 3.2 | 16.1 | 0.00 | 0.00 | 0.00 | 30 | 1010.0 |
| 20260503221123 | 16 | 325 | 3.2 | 9.7 | 0.00 | 0.00 | 0.00 | 32 | 1010.0 |
| 20260503221023 | 16 | 241 | 3.2 | 11.3 | 0.00 | 0.00 | 0.00 | 31 | 1010.0 |
| 20260503220954 | 16 | 240 | 3.2 | 12.9 | 0.00 | 0.00 | 0.00 | 32 | 1010.0 |
| 20260503220638 | 16 | 264 | 3.2 | 12.9 | 0.00 | 0.00 | 0.00 | 33 | 1010.0 |
| 20260503220425 | 16 | 244 | 3.2 | 12.9 | 0.00 | 0.00 | 0.00 | 32 | 1010.0 |
| 20260503220323 | 16 | 244 | 4.8 | 16.1 | 0.00 | 0.00 | 0.00 | 33 | 1009.9 |
| 20260503220222 | 16 | 244 | 4.8 | 16.1 | 0.00 | 0.00 | 0.00 | 31 | 1010.0 |
| 20260503220123 | 16 | 230 | 4.8 | 16.1 | 0.00 | 0.00 | 0.00 | 30 | 1010.0 |
| 20260503220023 | 16 | 236 | 4.8 | 16.1 | 0.00 | 0.00 | 0.00 | 32 | 1010.0 |
| 20260503215923 | 16 | 265 | 4.8 | 16.1 | 0.00 | 0.00 | 0.00 | 31 | 1010.0 |
| 20260503215823 | 16 | 265 | 4.8 | 16.1 | 0.00 | 0.00 | 0.00 | 32 | 1010.0 |
| 20260503215724 | 16 | 265 | 4.8 | 16.1 | 0.00 | 0.00 | 0.00 | 32 | 1010.0 |
| 20260503215624 | 16 | 327 | 4.8 | 16.1 | 0.00 | 0.00 | 0.00 | 32 | 1010.0 |
| 20260503215523 | 16 | 306 | 4.8 | 16.1 | 0.00 | 0.00 | 0.00 | 32 | 1010.0 |
| 20260503215424 | 16 | 306 | 4.8 | 24.1 | 0.00 | 0.00 | 0.00 | 31 | 1010.0 |
| 20260503215323 | 15 | 327 | 4.8 | 24.1 | 0.00 | 0.00 | 0.00 | 31 | 1010.0 |
| 20260503215224 | 15 | 321 | 6.4 | 24.1 | 0.00 | 0.00 | 0.00 | 31 | 1010.0 |
| 20260503215123 | 15 | 254 | 6.4 | 24.1 | 0.00 | 0.00 | 0.00 | 31 | 1010.0 |
| 20260503215024 | 15 | 307 | 6.4 | 24.1 | 0.00 | 0.00 | 0.00 | 31 | 1010.0 |
| 20260503214922 | 15 | 273 | 6.4 | 24.1 | 0.00 | 0.00 | 0.00 | 32 | 1010.0 |
| 20260503214822 | 15 | 311 | 6.4 | 24.1 | 0.00 | 0.00 | 0.00 | 32 | 1010.0 |
| 20260503214724 | 15 | 346 | 6.4 | 24.1 | 0.00 | 0.00 | 0.00 | 31 | 1010.1 |
| 20260503214624 | 15 | 227 | 8.0 | 24.1 | 0.00 | 0.00 | 0.00 | 30 | 1010.0 |
| 20260503214523 | 15 | 247 | 8.0 | 24.1 | 0.00 | 0.00 | 0.00 | 31 | 1010.0 |
| 20260503214424 | 15 | 240 | 6.4 | 22.5 | 0.00 | 0.00 | 0.00 | 31 | 1010.0 |
| 20260503214323 | 15 | 254 | 6.4 | 22.5 | 0.00 | 0.00 | 0.00 | 31 | 1010.0 |
| 20260503214240 | 15 | 265 | 6.4 | 22.5 | 0.00 | 0.00 | 0.00 | 32 | 1010.1 |
| 20260503214023 | 15 | 283 | 6.4 | 22.5 | 0.00 | 0.00 | 0.00 | 31 | 1010.1 |
| 20260503213924 | 15 | 277 | 6.4 | 22.5 | 0.00 | 0.00 | 0.00 | 31 | 1010.1 |
| 20260503213839 | 15 | 334 | 4.8 | 22.5 | 0.00 | 0.00 | 0.00 | 32 | 1010.1 |
| 20260503213623 | 15 | 242 | 4.8 | 22.5 | 0.00 | 0.00 | 0.00 | 31 | 1010.1 |
| 20260503213539 | 15 | 277 | 4.8 | 19.3 | 0.00 | 0.00 | 0.00 | 32 | 1010.0 |
| 20260503213322 | 15 | 242 | 6.4 | 22.5 | 0.00 | 0.00 | 0.00 | 32 | 1010.0 |
| 20260503213222 | 15 | 238 | 6.4 | 22.5 | 0.00 | 0.00 | 0.00 | 31 | 1010.0 |
| 20260503213120 | 15 | 239 | 6.4 | 22.5 | 0.00 | 0.00 | 0.00 | 32 | 1010.1 |
| 20260503213021 | 15 | 250 | 6.4 | 22.5 | 0.00 | 0.00 | 0.00 | 32 | 1010.1 |
| 20260503212920 | 15 | 237 | 6.4 | 22.5 | 0.00 | 0.00 | 0.00 | 32 | 1010.0 |
| 20260503212820 | 15 | 319 | 6.4 | 22.5 | 0.00 | 0.00 | 0.00 | 32 | 1010.1 |
| 20260503212718 | 15 | 248 | 8.0 | 22.5 | 0.00 | 0.00 | 0.00 | 31 | 1010.0 |
| 20260503212619 | 15 | 256 | 8.0 | 22.5 | 0.00 | 0.00 | 0.00 | 32 | 1010.0 |
| 20260503212533 | 15 | 262 | 8.0 | 22.5 | 0.00 | 0.00 | 0.00 | 31 | 1010.1 |
| 20260503212318 | 15 | 253 | 8.0 | 17.7 | 0.00 | 0.00 | 0.00 | 32 | 1010.1 |
| 20260503212215 | 15 | 260 | 8.0 | 20.9 | 0.00 | 0.00 | 0.00 | 32 | 1010.1 |
| 20260503212149 | 15 | 299 | 8.0 | 20.9 | 0.00 | 0.00 | 0.00 | 31 | 1009.9 |
| 20260503211816 | 15 | 341 | 6.4 | 20.9 | 0.00 | 0.00 | 0.00 | 32 | 1010.0 |
| 20260503211730 | 15 | 246 | 6.4 | 20.9 | 0.00 | 0.00 | 0.00 | 32 | 1010.1 |
| 20260503211512 | 15 | 323 | 6.4 | 20.9 | 0.00 | 0.00 | 0.00 | 32 | 1010.0 |
| 20260503211427 | 15 | 287 | 6.4 | 20.9 | 0.00 | 0.00 | 0.00 | 32 | 1010.1 |
| 20260503211209 | 15 | 260 | 6.4 | 22.5 | 0.00 | 0.00 | 0.00 | 32 | 1010.2 |
| 20260503211109 | 15 | 238 | 6.4 | 22.5 | 0.00 | 0.00 | 0.00 | 33 | 1010.0 |
| 20260503211010 | 15 | 319 | 8.0 | 22.5 | 0.00 | 0.00 | 0.00 | 33 | 1010.1 |
| 20260503210910 | 15 | 277 | 8.0 | 22.5 | 0.00 | 0.00 | 0.00 | 32 | 1010.0 |
| 20260503210810 | 15 | 238 | 8.0 | 22.5 | 0.00 | 0.00 | 0.00 | 32 | 1010.0 |
| 20260503210724 | 15 | 244 | 8.0 | 22.5 | 0.00 | 0.00 | 0.00 | 32 | 1010.1 |
| 20260503210507 | 15 | 157 | 8.0 | 22.5 | 0.00 | 0.00 | 0.00 | 32 | 1010.1 |
| 20260503210407 | 15 | 305 | 8.0 | 22.5 | 0.00 | 0.00 | 0.00 | 31 | 1009.9 |
| 20260503210307 | 15 | 275 | 8.0 | 22.5 | 0.00 | 0.00 | 0.00 | 32 | 1010.0 |
| 20260503210205 | 15 | 5 | 9.7 | 22.5 | 0.00 | 0.00 | 0.00 | 32 | 1010.0 |
| 20260503210104 | 15 | 250 | 9.7 | 22.5 | 0.00 | 0.00 | 0.00 | 32 | 1010.0 |
| 20260503210006 | 15 | 248 | 8.0 | 22.5 | 0.00 | 0.00 | 0.00 | 31 | 1010.0 |
| 20260503205905 | 15 | 250 | 9.7 | 22.5 | 0.00 | 0.00 | 0.00 | 32 | 1010.1 |
| 20260503205805 | 15 | 271 | 9.7 | 22.5 | 0.00 | 0.00 | 0.00 | 32 | 1010.1 |
| 20260503205703 | 15 | 258 | 9.7 | 22.5 | 0.00 | 0.00 | 0.00 | 31 | 1010.0 |
| 20260503205604 | 15 | 259 | 9.7 | 22.5 | 0.00 | 0.00 | 0.00 | 32 | 1010.1 |
| 20260503205504 | 15 | 254 | 9.7 | 22.5 | 0.00 | 0.00 | 0.00 | 32 | 1010.1 |
| 20260503205405 | 15 | 5 | 8.0 | 22.5 | 0.00 | 0.00 | 0.00 | 31 | 1010.0 |
| 20260503205304 | 15 | 251 | 8.0 | 22.5 | 0.00 | 0.00 | 0.00 | 31 | 1010.1 |
| 20260503205204 | 15 | 238 | 8.0 | 22.5 | 0.00 | 0.00 | 0.00 | 32 | 1010.1 |
| 20260503205120 | 15 | 263 | 8.0 | 22.5 | 0.00 | 0.00 | 0.00 | 32 | 1010.1 |
| 20260503204904 | 15 | 239 | 6.4 | 19.3 | 0.00 | 0.00 | 0.00 | 32 | 1010.1 |
| 20260503204804 | 15 | 268 | 6.4 | 19.3 | 0.00 | 0.00 | 0.00 | 32 | 1010.1 |
| 20260503204704 | 15 | 278 | 6.4 | 19.3 | 0.00 | 0.00 | 0.00 | 32 | 1010.0 |
| 20260503204605 | 15 | 243 | 6.4 | 19.3 | 0.00 | 0.00 | 0.00 | 33 | 1010.0 |
| 20260503204505 | 15 | 268 | 6.4 | 19.3 | 0.00 | 0.00 | 0.00 | 32 | 1010.0 |
| 20260503204418 | 15 | 258 | 6.4 | 19.3 | 0.00 | 0.00 | 0.00 | 32 | 1009.9 |
| 20260503204158 | 15 | 227 | 6.4 | 20.9 | 0.00 | 0.00 | 0.00 | 34 | 1010.1 |
| 20260503204058 | 15 | 338 | 6.4 | 20.9 | 0.00 | 0.00 | 0.00 | 33 | 1010.0 |
| 20260503203958 | 14 | 271 | 6.4 | 20.9 | 0.00 | 0.00 | 0.00 | 32 | 1010.0 |
| 20260503203858 | 14 | 270 | 6.4 | 20.9 | 0.00 | 0.00 | 0.00 | 33 | 1010.1 |
| 20260503203813 | 14 | 267 | 6.4 | 20.9 | 0.00 | 0.00 | 0.00 | 33 | 1010.1 |
| 20260503203556 | 14 | 283 | 6.4 | 20.9 | 0.00 | 0.00 | 0.00 | 32 | 1010.1 |
| 20260503203512 | 14 | 277 | 6.4 | 20.9 | 0.00 | 0.00 | 0.00 | 31 | 1010.1 |
| 20260503203253 | 14 | 238 | 6.4 | 20.9 | 0.00 | 0.00 | 0.00 | 33 | 1010.1 |
| 20260503203209 | 14 | 264 | 6.4 | 20.9 | 0.00 | 0.00 | 0.00 | 33 | 1010.1 |
| 20260503202953 | 15 | 258 | 6.4 | 20.9 | 0.00 | 0.00 | 0.00 | 32 | 1010.2 |
| 20260503202853 | 15 | 294 | 6.4 | 20.9 | 0.00 | 0.00 | 0.00 | 33 | 1010.1 |
| 20260503202752 | 15 | 333 | 6.4 | 20.9 | 0.00 | 0.00 | 0.00 | 34 | 1010.2 |
| 20260503202650 | 14 | 293 | 6.4 | 20.9 | 0.00 | 0.00 | 0.00 | 33 | 1010.1 |
| 20260503202550 | 14 | 289 | 8.0 | 20.9 | 0.00 | 0.00 | 0.00 | 33 | 1010.1 |
| 20260503202450 | 14 | 240 | 8.0 | 20.9 | 0.00 | 0.00 | 0.00 | 32 | 1010.2 |
| 20260503202351 | 14 | 251 | 8.0 | 27.4 | 0.00 | 0.00 | 0.00 | 33 | 1010.1 |
| 20260503202249 | 15 | 280 | 8.0 | 27.4 | 0.00 | 0.00 | 0.00 | 33 | 1010.2 |
| 20260503202207 | 14 | 250 | 8.0 | 27.4 | 0.00 | 0.00 | 0.00 | 33 | 1010.2 |
| 20260503201949 | 14 | 275 | 8.0 | 29.0 | 0.00 | 0.00 | 0.00 | 33 | 1010.2 |
| 20260503201848 | 14 | 231 | 8.0 | 29.0 | 0.00 | 0.00 | 0.00 | 33 | 1010.2 |
| 20260503201804 | 14 | 223 | 8.0 | 29.0 | 0.00 | 0.00 | 0.00 | 33 | 1010.2 |
| 20260503201549 | 14 | 244 | 9.7 | 29.0 | 0.00 | 0.00 | 0.00 | 32 | 1010.2 |
| 20260503201445 | 14 | 250 | 9.7 | 29.0 | 0.00 | 0.00 | 0.00 | 33 | 1010.3 |
| 20260503201400 | 14 | 260 | 9.7 | 29.0 | 0.00 | 0.00 | 0.00 | 32 | 1010.2 |
| 20260503201143 | 14 | 282 | 8.0 | 29.0 | 0.00 | 0.00 | 0.00 | 32 | 1010.4 |
| 20260503201059 | 14 | 322 | 8.0 | 19.3 | 0.00 | 0.00 | 0.00 | 31 | 1010.4 |
| 20260503200840 | 15 | 240 | 8.0 | 19.3 | 0.00 | 0.00 | 0.00 | 34 | 1010.3 |
| 20260503200738 | 15 | 287 | 8.0 | 19.3 | 0.00 | 0.00 | 0.00 | 32 | 1010.4 |
| 20260503200639 | 15 | 256 | 8.0 | 16.1 | 0.00 | 0.00 | 0.00 | 32 | 1010.3 |
| 20260503200537 | 15 | 267 | 8.0 | 16.1 | 0.00 | 0.00 | 0.00 | 33 | 1010.5 |
| 20260503200440 | 15 | 273 | 8.0 | 16.1 | 0.00 | 0.00 | 0.00 | 33 | 1010.4 |
| 20260503200336 | 15 | 257 | 6.4 | 16.1 | 0.00 | 0.00 | 0.00 | 35 | 1010.4 |
| 20260503200236 | 15 | 323 | 6.4 | 16.1 | 0.00 | 0.00 | 0.00 | 36 | 1010.4 |
| 20260503200136 | 14 | 251 | 6.4 | 16.1 | 0.00 | 0.00 | 0.00 | 35 | 1010.4 |
| 20260503200036 | 14 | 233 | 6.4 | 19.3 | 0.00 | 0.00 | 0.00 | 35 | 1010.3 |
| 20260503195935 | 14 | 329 | 6.4 | 19.3 | 0.00 | 0.00 | 0.00 | 35 | 1010.3 |
| 20260503195836 | 14 | 260 | 6.4 | 19.3 | 0.00 | 0.00 | 0.00 | 34 | 1010.4 |
| 20260503195737 | 14 | 258 | 6.4 | 19.3 | 0.00 | 0.00 | 0.00 | 34 | 1010.4 |
| 20260503195708 | 14 | 261 | 6.4 | 19.3 | 0.00 | 0.00 | 0.00 | 35 | 1010.5 |
| 20260503195419 | 13 | 292 | 8.0 | 19.3 | 0.00 | 0.00 | 0.00 | 34 | 1010.4 |
| 20260503194931 | 13 | 240 | 8.0 | 20.9 | 0.00 | 0.00 | 0.00 | 35 | 1010.5 |
| 20260503194829 | 13 | 284 | 8.0 | 20.9 | 0.00 | 0.00 | 0.00 | 35 | 1010.5 |
| 20260503194730 | 13 | 304 | 8.0 | 20.9 | 0.00 | 0.00 | 0.00 | 34 | 1010.5 |
| 20260503194630 | 13 | 355 | 8.0 | 20.9 | 0.00 | 0.00 | 0.00 | 34 | 1010.5 |
| 20260503194530 | 13 | 250 | 8.0 | 20.9 | 0.00 | 0.00 | 0.00 | 34 | 1010.5 |
| 20260503194429 | 13 | 229 | 8.0 | 20.9 | 0.00 | 0.00 | 0.00 | 34 | 1010.5 |
| 20260503194331 | 13 | 236 | 8.0 | 20.9 | 0.00 | 0.00 | 0.00 | 34 | 1010.5 |
| 20260503194230 | 13 | 253 | 8.0 | 20.9 | 0.00 | 0.00 | 0.00 | 35 | 1010.5 |
| 20260503194131 | 13 | 230 | 8.0 | 17.7 | 0.00 | 0.00 | 0.00 | 36 | 1010.5 |
| 20260503194045 | 13 | 264 | 8.0 | 17.7 | 0.00 | 0.00 | 0.00 | 36 | 1010.6 |
| 20260503193829 | 13 | 256 | 8.0 | 17.7 | 0.00 | 0.00 | 0.00 | 35 | 1010.5 |
| 20260503193729 | 13 | 302 | 8.0 | 17.7 | 0.00 | 0.00 | 0.00 | 35 | 1010.5 |
| 20260503193627 | 13 | 243 | 8.0 | 19.3 | 0.00 | 0.00 | 0.00 | 35 | 1010.4 |
| 20260503193528 | 13 | 250 | 8.0 | 19.3 | 0.00 | 0.00 | 0.00 | 34 | 1010.4 |
| 20260503193427 | 13 | 321 | 8.0 | 19.3 | 0.00 | 0.00 | 0.00 | 34 | 1010.5 |
| 20260503193327 | 13 | 235 | 6.4 | 19.3 | 0.00 | 0.00 | 0.00 | 34 | 1010.6 |
| 20260503193227 | 13 | 243 | 6.4 | 19.3 | 0.00 | 0.00 | 0.00 | 35 | 1010.5 |
| 20260503193128 | 13 | 309 | 6.4 | 19.3 | 0.00 | 0.00 | 0.00 | 35 | 1010.5 |
| 20260503193025 | 13 | 271 | 6.4 | 22.5 | 0.00 | 0.00 | 0.00 | 35 | 1010.6 |
| 20260503192939 | 13 | 228 | 6.4 | 22.5 | 0.00 | 0.00 | 0.00 | 35 | 1010.6 |
| 20260503192723 | 13 | 258 | 8.0 | 22.5 | 0.00 | 0.00 | 0.00 | 37 | 1010.6 |
| 20260503192624 | 13 | 237 | 6.4 | 22.5 | 0.00 | 0.00 | 0.00 | 35 | 1010.6 |
| 20260503192524 | 13 | 232 | 6.4 | 22.5 | 0.00 | 0.00 | 0.00 | 36 | 1010.7 |
| 20260503192442 | 13 | 270 | 6.4 | 22.5 | 0.00 | 0.00 | 0.00 | 37 | 1010.7 |
| 20260503192239 | 13 | 242 | 8.0 | 22.5 | 0.00 | 0.00 | 0.00 | 36 | 1010.7 |
| 20260503192023 | 13 | 348 | 8.0 | 20.9 | 0.00 | 0.00 | 0.00 | 35 | 1010.7 |
| 20260503191923 | 13 | 240 | 6.4 | 20.9 | 0.00 | 0.00 | 0.00 | 35 | 1010.7 |
| 20260503191824 | 13 | 294 | 6.4 | 20.9 | 0.00 | 0.00 | 0.00 | 38 | 1010.7 |
| 20260503191722 | 13 | 278 | 6.4 | 20.9 | 0.00 | 0.00 | 0.00 | 36 | 1010.7 |
| 20260503191619 | 13 | 279 | 6.4 | 20.9 | 0.00 | 0.00 | 0.00 | 35 | 1010.8 |
| 20260503191535 | 13 | 285 | 6.4 | 20.9 | 0.00 | 0.00 | 0.00 | 36 | 1010.8 |
| 20260503191318 | 13 | 5 | 4.8 | 17.7 | 0.00 | 0.00 | 0.00 | 39 | 1010.9 |
| 20260503191219 | 13 | 17 | 4.8 | 16.1 | 0.00 | 0.00 | 0.00 | 36 | 1010.8 |
| 20260503191117 | 13 | 336 | 4.8 | 17.7 | 0.00 | 0.00 | 0.00 | 37 | 1010.7 |
| 20260503191019 | 13 | 238 | 4.8 | 17.7 | 0.00 | 0.00 | 0.00 | 36 | 1010.8 |
| 20260503190918 | 13 | 317 | 4.8 | 17.7 | 0.00 | 0.00 | 0.00 | 37 | 1010.7 |
| 20260503190815 | 13 | 202 | 6.4 | 17.7 | 0.00 | 0.00 | 0.00 | 37 | 1010.7 |
| 20260503190713 | 13 | 198 | 6.4 | 17.7 | 0.00 | 0.00 | 0.00 | 39 | 1010.7 |
| 20260503190615 | 13 | 229 | 6.4 | 17.7 | 0.00 | 0.00 | 0.00 | 39 | 1010.8 |
| 20260503190544 | 13 | 275 | 6.4 | 17.7 | 0.00 | 0.00 | 0.00 | 36 | 1010.9 |
| 20260503190212 | 13 | 260 | 8.0 | 20.9 | 0.00 | 0.00 | 0.00 | 37 | 1010.8 |
| 20260503190113 | 13 | 298 | 6.4 | 20.9 | 0.00 | 0.00 | 0.00 | 38 | 1010.7 |
| 20260503190012 | 13 | 300 | 8.0 | 20.9 | 0.00 | 0.00 | 0.00 | 37 | 1010.8 |
| 20260503185928 | 13 | 264 | 8.0 | 20.9 | 0.00 | 0.00 | 0.00 | 37 | 1010.8 |
| 20260503185712 | 13 | 223 | 8.0 | 20.9 | 0.00 | 0.00 | 0.00 | 37 | 1010.9 |
| 20260503185610 | 13 | 258 | 8.0 | 20.9 | 0.00 | 0.00 | 0.00 | 38 | 1010.9 |
| 20260503185511 | 13 | 260 | 8.0 | 20.9 | 0.00 | 0.00 | 0.00 | 38 | 1010.9 |
| 20260503185411 | 13 | 188 | 8.0 | 20.9 | 0.00 | 0.00 | 0.00 | 39 | 1010.9 |
| 20260503185310 | 13 | 265 | 8.0 | 20.9 | 0.00 | 0.00 | 0.00 | 38 | 1010.8 |
| 20260503185209 | 13 | 241 | 8.0 | 20.9 | 0.00 | 0.00 | 0.00 | 38 | 1010.8 |
| 20260503185110 | 13 | 237 | 8.0 | 22.5 | 0.00 | 0.00 | 0.00 | 38 | 1010.9 |
| 20260503185026 | 13 | 219 | 8.0 | 29.0 | 0.00 | 0.00 | 0.00 | 37 | 1010.9 |
| 20260503184810 | 12 | 236 | 9.7 | 29.0 | 0.00 | 0.00 | 0.00 | 38 | 1010.9 |
| 20260503184727 | 12 | 5 | 9.7 | 29.0 | 0.00 | 0.00 | 0.00 | 38 | 1010.9 |
| 20260503184526 | 12 | 250 | 9.7 | 29.0 | 0.00 | 0.00 | 0.00 | 38 | 1011.0 |
| 20260503184309 | 13 | 262 | 9.7 | 29.0 | 0.00 | 0.00 | 0.00 | 36 | 1011.0 |
| 20260503184207 | 13 | 239 | 9.7 | 29.0 | 0.00 | 0.00 | 0.00 | 36 | 1011.0 |
| 20260503184126 | 13 | 245 | 9.7 | 29.0 | 0.00 | 0.00 | 0.00 | 35 | 1011.1 |
| 20260503183908 | 13 | 259 | 9.7 | 22.5 | 0.00 | 0.00 | 0.00 | 36 | 1011.0 |
| 20260503183809 | 13 | 280 | 8.0 | 22.5 | 0.00 | 0.00 | 0.00 | 37 | 1011.1 |
| 20260503183709 | 13 | 346 | 8.0 | 22.5 | 0.00 | 0.00 | 0.00 | 39 | 1011.0 |
| 20260503183607 | 13 | 9 | 8.0 | 22.5 | 0.00 | 0.00 | 0.00 | 38 | 1011.0 |
| 20260503183524 | 13 | 300 | 8.0 | 22.5 | 0.00 | 0.00 | 0.00 | 36 | 1011.0 |
| 20260503183308 | 13 | 286 | 8.0 | 17.7 | 0.00 | 0.00 | 0.00 | 38 | 1011.0 |
| 20260503183222 | 13 | 277 | 8.0 | 17.7 | 0.00 | 0.00 | 0.00 | 40 | 1011.0 |
| 20260503183005 | 13 | 273 | 6.4 | 17.7 | 0.00 | 0.00 | 0.00 | 37 | 1011.1 |
| 20260503182906 | 13 | 252 | 6.4 | 17.7 | 0.00 | 0.00 | 0.00 | 37 | 1011.0 |
| 20260503182805 | 13 | 243 | 6.4 | 17.7 | 0.00 | 0.00 | 0.00 | 37 | 1011.1 |
| 20260503182731 | 13 | 269 | 6.4 | 17.7 | 0.00 | 0.00 | 0.00 | 37 | 1011.1 |
| 20260503182714 | 13 | 217 | 6.4 | 17.7 | 0.00 | 0.00 | 0.00 | 39 | 1011.0 |
| 20260503182139 | 12 | 302 | 6.4 | 16.1 | 0.00 | 0.00 | 0.00 | 38 | 1011.0 |
| 20260503181804 | 12 | 306 | 6.4 | 17.7 | 0.00 | 0.00 | 0.00 | 38 | 1011.1 |
| 20260503181705 | 12 | 252 | 6.4 | 17.7 | 0.00 | 0.00 | 0.00 | 39 | 1011.2 |
| 20260503181604 | 12 | 248 | 6.4 | 17.7 | 0.00 | 0.00 | 0.00 | 38 | 1011.1 |
| 20260503181506 | 13 | 244 | 6.4 | 17.7 | 0.00 | 0.00 | 0.00 | 39 | 1011.3 |
| 20260503181403 | 12 | 246 | 4.8 | 17.7 | 0.00 | 0.00 | 0.00 | 41 | 1011.1 |
| 20260503181304 | 12 | 247 | 6.4 | 17.7 | 0.00 | 0.00 | 0.00 | 40 | 1011.1 |
| 20260503181204 | 12 | 254 | 4.8 | 17.7 | 0.00 | 0.00 | 0.00 | 41 | 1011.2 |
| 20260503181104 | 12 | 265 | 4.8 | 17.7 | 0.00 | 0.00 | 0.00 | 40 | 1011.2 |
| 20260503181005 | 12 | 246 | 6.4 | 17.7 | 0.00 | 0.00 | 0.00 | 40 | 1011.0 |
| 20260503180905 | 12 | 250 | 6.4 | 24.1 | 0.00 | 0.00 | 0.00 | 39 | 1011.0 |
| 20260503180801 | 12 | 297 | 6.4 | 24.1 | 0.00 | 0.00 | 0.00 | 39 | 1011.2 |
| 20260503180719 | 12 | 254 | 4.8 | 24.1 | 0.00 | 0.00 | 0.00 | 42 | 1011.0 |
| 20260503180501 | 12 | 236 | 6.4 | 24.1 | 0.00 | 0.00 | 0.00 | 43 | 1011.1 |
| 20260503180420 | 12 | 236 | 6.4 | 24.1 | 0.00 | 0.00 | 0.00 | 43 | 1011.1 |
| 20260503180235 | 12 | 238 | 6.4 | 24.1 | 0.00 | 0.00 | 0.00 | 40 | 1011.2 |
| 20260503175903 | 12 | 280 | 6.4 | 19.3 | 0.00 | 0.00 | 0.00 | 42 | 1011.2 |
| 20260503175832 | 12 | 263 | 6.4 | 24.1 | 0.00 | 0.00 | 0.00 | 41 | 1011.1 |
| 20260503175500 | 12 | 267 | 8.0 | 24.1 | 0.00 | 0.00 | 0.00 | 41 | 1011.2 |
| 20260503175401 | 12 | 276 | 8.0 | 24.1 | 0.00 | 0.00 | 0.00 | 41 | 1011.3 |
| 20260503175315 | 11 | 304 | 8.0 | 24.1 | 0.00 | 0.00 | 0.00 | 46 | 1011.2 |
| 20260503175100 | 11 | 257 | 8.0 | 24.1 | 0.00 | 0.00 | 0.00 | 43 | 1011.1 |
| 20260503174959 | 11 | 0 | 8.0 | 24.1 | 0.00 | 0.00 | 0.00 | 47 | 1011.2 |
| 20260503174900 | 11 | 281 | 8.0 | 24.1 | 0.00 | 0.00 | 0.00 | 42 | 1011.2 |
| 20260503174759 | 11 | 327 | 8.0 | 17.7 | 0.00 | 0.00 | 0.00 | 43 | 1011.3 |
| 20260503174716 | 11 | 240 | 6.4 | 17.7 | 0.00 | 0.00 | 0.00 | 41 | 1011.2 |
| 20260503174500 | 11 | 250 | 6.4 | 16.1 | 0.00 | 0.00 | 0.00 | 42 | 1011.3 |
| 20260503174357 | 11 | 240 | 6.4 | 16.1 | 0.00 | 0.00 | 0.00 | 42 | 1011.4 |
| 20260503174300 | 11 | 238 | 6.4 | 16.1 | 0.00 | 0.00 | 0.00 | 42 | 1011.4 |
| 20260503174214 | 11 | 263 | 6.4 | 16.1 | 0.00 | 0.00 | 0.00 | 42 | 1011.3 |
| 20260503173957 | 11 | 234 | 6.4 | 16.1 | 0.00 | 0.00 | 0.00 | 44 | 1011.4 |
| 20260503173858 | 11 | 253 | 6.4 | 16.1 | 0.00 | 0.00 | 0.00 | 47 | 1011.5 |
| 20260503173758 | 11 | 271 | 6.4 | 20.9 | 0.00 | 0.00 | 0.00 | 45 | 1011.5 |
| 20260503173727 | 11 | 268 | 8.0 | 22.5 | 0.00 | 0.00 | 0.00 | 44 | 1011.5 |
| 20260503173354 | 11 | 355 | 8.0 | 22.5 | 0.00 | 0.00 | 0.00 | 43 | 1011.5 |
| 20260503173254 | 11 | 351 | 8.0 | 22.5 | 0.00 | 0.00 | 0.00 | 43 | 1011.6 |
| 20260503173154 | 11 | 305 | 8.0 | 22.5 | 0.00 | 0.00 | 0.00 | 45 | 1011.5 |
| 20260503173110 | 10 | 289 | 8.0 | 22.5 | 0.00 | 0.00 | 0.00 | 44 | 1011.5 |
| 20260503172853 | 11 | 248 | 8.0 | 22.5 | 0.00 | 0.00 | 0.00 | 43 | 1011.5 |
| 20260503172755 | 11 | 248 | 6.4 | 22.5 | 0.00 | 0.00 | 0.00 | 44 | 1011.5 |
| 20260503172654 | 11 | 228 | 6.4 | 16.1 | 0.00 | 0.00 | 0.00 | 44 | 1011.5 |
| 20260503172553 | 11 | 277 | 6.4 | 16.1 | 0.00 | 0.00 | 0.00 | 45 | 1011.5 |
| 20260503172453 | 11 | 267 | 6.4 | 16.1 | 0.00 | 0.00 | 0.00 | 45 | 1011.5 |
| 20260503172354 | 10 | 254 | 6.4 | 16.1 | 0.00 | 0.00 | 0.00 | 44 | 1011.5 |
| 20260503172251 | 10 | 240 | 6.4 | 16.1 | 0.00 | 0.00 | 0.00 | 44 | 1011.5 |
| 20260503172153 | 10 | 350 | 6.4 | 16.1 | 0.00 | 0.00 | 0.00 | 44 | 1011.5 |
| 20260503172108 | 10 | 253 | 6.4 | 16.1 | 0.00 | 0.00 | 0.00 | 45 | 1011.7 |
| 20260503171852 | 10 | 253 | 8.0 | 22.5 | 0.00 | 0.00 | 0.00 | 45 | 1011.7 |
| 20260503171751 | 10 | 253 | 8.0 | 22.5 | 0.00 | 0.00 | 0.00 | 45 | 1011.6 |
| 20260503171651 | 10 | 330 | 8.0 | 22.5 | 0.00 | 0.00 | 0.00 | 47 | 1011.7 |
| 20260503171553 | 10 | 279 | 8.0 | 22.5 | 0.00 | 0.00 | 0.00 | 46 | 1011.6 |
| 20260503171449 | 10 | 279 | 9.7 | 22.5 | 0.00 | 0.00 | 0.00 | 46 | 1011.6 |
| 20260503171351 | 10 | 280 | 9.7 | 22.5 | 0.00 | 0.00 | 0.00 | 44 | 1011.6 |
| 20260503171249 | 10 | 261 | 9.7 | 22.5 | 0.00 | 0.00 | 0.00 | 44 | 1011.6 |
| 20260503171147 | 10 | 344 | 11.3 | 22.5 | 0.00 | 0.00 | 0.00 | 44 | 1011.7 |
| 20260503171048 | 10 | 244 | 11.3 | 22.5 | 0.00 | 0.00 | 0.00 | 43 | 1011.8 |
| 20260503171003 | 10 | 304 | 9.7 | 22.5 | 0.00 | 0.00 | 0.00 | 44 | 1011.7 |
| 20260503170744 | 11 | 246 | 9.7 | 22.5 | 0.00 | 0.00 | 0.00 | 44 | 1011.8 |
| 20260503170644 | 11 | 292 | 9.7 | 22.5 | 0.00 | 0.00 | 0.00 | 45 | 1011.8 |
| 20260503170544 | 11 | 237 | 8.0 | 22.5 | 0.00 | 0.00 | 0.00 | 44 | 1011.8 |
| 20260503170458 | 11 | 328 | 8.0 | 22.5 | 0.00 | 0.00 | 0.00 | 46 | 1011.8 |
| 20260503170242 | 11 | 281 | 8.0 | 20.9 | 0.00 | 0.00 | 0.00 | 45 | 1011.8 |
| 20260503170224 | 10 | 246 | 6.4 | 20.9 | 0.00 | 0.00 | 0.00 | 45 | 1011.9 |
| 20260503160215 | 10 | 306 | 8.0 | 22.5 | 0.00 | 0.00 | 0.00 | 47 | 1012.1 |
| 20260503160116 | 10 | 287 | 8.0 | 22.5 | 0.00 | 0.00 | 0.00 | 48 | 1012.1 |
| 20260503150657 | 9 | 270 | 3.2 | 16.1 | 0.00 | 0.00 | 0.00 | 49 | 1012.3 |
| 20260503150557 | 9 | 316 | 3.2 | 14.5 | 0.00 | 0.00 | 0.00 | 52 | 1012.1 |
| 20260503150457 | 9 | 251 | 3.2 | 14.5 | 0.00 | 0.00 | 0.00 | 51 | 1012.1 |
| 20260503150430 | 9 | 244 | 3.2 | 14.5 | 0.00 | 0.00 | 0.00 | 50 | 1012.2 |
| 20260503140151 | 9 | 330 | 4.8 | 14.5 | 0.00 | 0.00 | 0.00 | 52 | 1012.2 |
| 20260503131340 | 8 | 254 | 6.4 | 24.1 | 0.00 | 0.00 | 0.00 | 58 | 1012.2 |
| 20260503131241 | 8 | 259 | 6.4 | 24.1 | 0.00 | 0.00 | 0.00 | 58 | 1012.1 |
| 20260503131140 | 8 | 289 | 6.4 | 19.3 | 0.00 | 0.00 | 0.00 | 60 | 1012.1 |
| 20260503131057 | 8 | 302 | 6.4 | 19.3 | 0.00 | 0.00 | 0.00 | 59 | 1012.1 |
| 20260503130912 | 7 | 323 | 6.4 | 19.3 | 0.00 | 0.00 | 0.00 | 59 | 1012.1 |
| 20260503130541 | 7 | 248 | 8.0 | 20.9 | 0.00 | 0.00 | 0.00 | 58 | 1012.1 |
| 20260503130443 | 7 | 37 | 8.0 | 20.9 | 0.00 | 0.00 | 0.00 | 58 | 1012.1 |
| 20260503130358 | 7 | 327 | 8.0 | 22.5 | 0.00 | 0.00 | 0.00 | 58 | 1012.1 |
| 20260503130142 | 7 | 312 | 9.7 | 22.5 | 0.00 | 0.00 | 0.00 | 58 | 1012.1 |
| 20260503120142 | 6 | 271 | 8.0 | 17.7 | 0.00 | 0.00 | 0.00 | 63 | 1012.0 |
| 20260503110731 | 6 | 297 | 8.0 | 19.3 | 0.00 | 0.00 | 0.00 | 64 | 1011.5 |
| 20260503110630 | 6 | 355 | 8.0 | 19.3 | 0.00 | 0.00 | 0.00 | 64 | 1011.5 |
| 20260503110529 | 6 | 257 | 8.0 | 19.3 | 0.00 | 0.00 | 0.00 | 65 | 1011.4 |
| 20260503110429 | 6 | 253 | 8.0 | 19.3 | 0.00 | 0.00 | 0.00 | 64 | 1011.4 |
| 20260503110329 | 6 | 306 | 8.0 | 19.3 | 0.00 | 0.00 | 0.00 | 64 | 1011.4 |
| 20260503110230 | 6 | 292 | 9.7 | 19.3 | 0.00 | 0.00 | 0.00 | 64 | 1011.3 |
| 20260503110127 | 6 | 249 | 9.7 | 19.3 | 0.00 | 0.00 | 0.00 | 64 | 1011.3 |
| 20260503100258 | 6 | 338 | 4.8 | 12.9 | 0.00 | 0.00 | 0.00 | 62 | 1010.9 |
| 20260503100212 | 6 | 305 | 4.8 | 12.9 | 0.00 | 0.00 | 0.00 | 62 | 1010.9 |
| 20260503090459 | 6 | 313 | 4.8 | 16.1 | 0.00 | 0.00 | 0.00 | 58 | 1010.5 |
| 20260503090123 | 6 | 304 | 4.8 | 16.1 | 0.00 | 0.00 | 0.00 | 58 | 1010.6 |
| 20260503081607 | 7 | 338 | 6.4 | 17.7 | 0.00 | 0.00 | 0.00 | 57 | 1010.4 |
| 20260503081507 | 7 | 339 | 6.4 | 17.7 | 0.00 | 0.00 | 0.00 | 57 | 1010.4 |
| 20260503081407 | 7 | 0 | 6.4 | 17.7 | 0.00 | 0.00 | 0.00 | 57 | 1010.4 |
| 20260503081306 | 7 | 315 | 6.4 | 17.7 | 0.00 | 0.00 | 0.00 | 57 | 1010.4 |
| 20260503081207 | 7 | 318 | 8.0 | 17.7 | 0.00 | 0.00 | 0.00 | 57 | 1010.5 |
| 20260503081141 | 7 | 303 | 8.0 | 17.7 | 0.00 | 0.00 | 0.00 | 57 | 1010.4 |
| 20260503081126 | 7 | 0 | 8.0 | 19.3 | 0.00 | 0.00 | 0.00 | 57 | 1010.4 |
| 20260503080407 | 7 | 15 | 8.0 | 19.3 | 0.00 | 0.00 | 0.00 | 57 | 1010.4 |
| 20260503080320 | 7 | 261 | 8.0 | 19.3 | 0.00 | 0.00 | 0.00 | 56 | 1010.4 |
| 20260503080104 | 7 | 325 | 6.4 | 19.3 | 0.00 | 0.00 | 0.00 | 57 | 1010.3 |
| 20260503072859 | 7 | 348 | 3.2 | 8.0 | 0.00 | 0.00 | 0.00 | 56 | 1010.3 |
| 20260503072800 | 7 | 16 | 3.2 | 8.0 | 0.00 | 0.00 | 0.00 | 56 | 1010.3 |
| 20260503072658 | 7 | 23 | 3.2 | 8.0 | 0.00 | 0.00 | 0.00 | 56 | 1010.3 |
| 20260503072559 | 7 | 284 | 1.6 | 8.0 | 0.00 | 0.00 | 0.00 | 56 | 1010.3 |
| 20260503072528 | 7 | 265 | 1.6 | 8.0 | 0.00 | 0.00 | 0.00 | 56 | 1010.3 |
| 20260503072155 | 7 | 0 | 1.6 | 8.0 | 0.00 | 0.00 | 0.00 | 56 | 1010.3 |
| 20260503072055 | 7 | 23 | 1.6 | 8.0 | 0.00 | 0.00 | 0.00 | 56 | 1010.3 |
| 20260503071954 | 7 | 23 | 1.6 | 8.0 | 0.00 | 0.00 | 0.00 | 56 | 1010.3 |
| 20260503071855 | 7 | 33 | 1.6 | 8.0 | 0.00 | 0.00 | 0.00 | 57 | 1010.2 |
| 20260503071824 | 7 | 28 | 1.6 | 8.0 | 0.00 | 0.00 | 0.00 | 57 | 1010.3 |
| 20260503071454 | 7 | 28 | 3.2 | 8.0 | 0.00 | 0.00 | 0.00 | 56 | 1010.3 |
| 20260503071350 | 7 | 28 | 3.2 | 8.0 | 0.00 | 0.00 | 0.00 | 56 | 1010.3 |
| 20260503071251 | 7 | 310 | 3.2 | 9.7 | 0.00 | 0.00 | 0.00 | 56 | 1010.3 |
| 20260503071151 | 7 | 310 | 3.2 | 9.7 | 0.00 | 0.00 | 0.00 | 56 | 1010.3 |
| 20260503071048 | 7 | 298 | 4.8 | 17.7 | 0.00 | 0.00 | 0.00 | 56 | 1010.3 |
| 20260503070948 | 7 | 350 | 4.8 | 17.7 | 0.00 | 0.00 | 0.00 | 56 | 1010.3 |
| 20260503070850 | 7 | 350 | 4.8 | 17.7 | 0.00 | 0.00 | 0.00 | 56 | 1010.3 |
| 20260503070747 | 7 | 355 | 4.8 | 17.7 | 0.00 | 0.00 | 0.00 | 56 | 1010.3 |
| 20260503070702 | 7 | 13 | 4.8 | 17.7 | 0.00 | 0.00 | 0.00 | 56 | 1010.3 |
| 20260503070446 | 7 | 306 | 3.2 | 17.7 | 0.00 | 0.00 | 0.00 | 56 | 1010.4 |
| 20260503070344 | 7 | 333 | 3.2 | 17.7 | 0.00 | 0.00 | 0.00 | 56 | 1010.3 |
| 20260503070258 | 7 | 286 | 3.2 | 17.7 | 0.00 | 0.00 | 0.00 | 56 | 1010.3 |
| 20260503060312 | 8 | 317 | 1.6 | 9.7 | 0.00 | 0.00 | 0.00 | 53 | 1010.5 |
| 20260503060212 | 8 | 317 | 3.2 | 9.7 | 0.00 | 0.00 | 0.00 | 53 | 1010.5 |
| 20260503060111 | 8 | 317 | 3.2 | 9.7 | 0.00 | 0.00 | 0.00 | 52 | 1010.5 |
| 20260503055112 | 8 | 350 | 3.2 | 8.0 | 0.00 | 0.00 | 0.00 | 53 | 1010.5 |
| 20260503055011 | 8 | 355 | 3.2 | 8.0 | 0.00 | 0.00 | 0.00 | 52 | 1010.6 |
| 20260503054910 | 8 | 348 | 3.2 | 8.0 | 0.00 | 0.00 | 0.00 | 52 | 1010.6 |
| 20260503054809 | 8 | 28 | 3.2 | 8.0 | 0.00 | 0.00 | 0.00 | 52 | 1010.6 |
| 20260503054707 | 8 | 332 | 3.2 | 8.0 | 0.00 | 0.00 | 0.00 | 52 | 1010.7 |
| 20260503054606 | 8 | 295 | 3.2 | 8.0 | 0.00 | 0.00 | 0.00 | 52 | 1010.7 |
| 20260503054521 | 8 | 342 | 3.2 | 8.0 | 0.00 | 0.00 | 0.00 | 52 | 1010.7 |
| 20260503054333 | 8 | 342 | 3.2 | 14.5 | 0.00 | 0.00 | 0.00 | 52 | 1010.7 |
| 20260503054018 | 8 | 320 | 3.2 | 14.5 | 0.00 | 0.00 | 0.00 | 51 | 1010.7 |
| 20260503053757 | 8 | 292 | 3.2 | 14.5 | 0.00 | 0.00 | 0.00 | 51 | 1010.7 |
| 20260503053658 | 8 | 5 | 3.2 | 14.5 | 0.00 | 0.00 | 0.00 | 51 | 1010.7 |
| 20260503053559 | 8 | 39 | 3.2 | 14.5 | 0.00 | 0.00 | 0.00 | 51 | 1010.7 |
| 20260503053513 | 8 | 320 | 3.2 | 14.5 | 0.00 | 0.00 | 0.00 | 51 | 1010.7 |
| 20260503053257 | 8 | 20 | 3.2 | 16.1 | 0.00 | 0.00 | 0.00 | 51 | 1010.7 |
| 20260503053157 | 8 | 319 | 4.8 | 16.1 | 0.00 | 0.00 | 0.00 | 51 | 1010.7 |
| 20260503053058 | 8 | 314 | 4.8 | 16.1 | 0.00 | 0.00 | 0.00 | 51 | 1010.7 |
| 20260503053011 | 8 | 314 | 4.8 | 16.1 | 0.00 | 0.00 | 0.00 | 51 | 1010.7 |
| 20260503052756 | 8 | 325 | 6.4 | 16.1 | 0.00 | 0.00 | 0.00 | 51 | 1010.7 |
| 20260503052653 | 8 | 311 | 6.4 | 16.1 | 0.00 | 0.00 | 0.00 | 51 | 1010.7 |
| 20260503052554 | 8 | 329 | 6.4 | 16.1 | 0.00 | 0.00 | 0.00 | 51 | 1010.7 |
| 20260503052452 | 8 | 321 | 6.4 | 16.1 | 0.00 | 0.00 | 0.00 | 51 | 1010.7 |
| 20260503052353 | 8 | 342 | 4.8 | 16.1 | 0.00 | 0.00 | 0.00 | 50 | 1010.7 |
| 20260503052252 | 8 | 323 | 4.8 | 16.1 | 0.00 | 0.00 | 0.00 | 51 | 1010.7 |
| 20260503052152 | 8 | 273 | 4.8 | 16.1 | 0.00 | 0.00 | 0.00 | 50 | 1010.7 |
| 20260503052052 | 8 | 340 | 4.8 | 16.1 | 0.00 | 0.00 | 0.00 | 50 | 1010.7 |
| 20260503051953 | 8 | 26 | 3.2 | 16.1 | 0.00 | 0.00 | 0.00 | 51 | 1010.8 |
| 20260503051853 | 8 | 17 | 3.2 | 16.1 | 0.00 | 0.00 | 0.00 | 51 | 1010.8 |
| 20260503051754 | 8 | 274 | 3.2 | 12.9 | 0.00 | 0.00 | 0.00 | 51 | 1010.8 |
| 20260503051652 | 8 | 331 | 3.2 | 9.7 | 0.00 | 0.00 | 0.00 | 51 | 1010.8 |
| 20260503051552 | 8 | 344 | 1.6 | 9.7 | 0.00 | 0.00 | 0.00 | 50 | 1010.8 |
| 20260503051452 | 8 | 302 | 1.6 | 9.7 | 0.00 | 0.00 | 0.00 | 51 | 1010.8 |
| 20260503051350 | 8 | 11 | 3.2 | 9.7 | 0.00 | 0.00 | 0.00 | 51 | 1010.9 |
| 20260503051250 | 8 | 11 | 3.2 | 9.7 | 0.00 | 0.00 | 0.00 | 50 | 1010.9 |
| 20260503051149 | 8 | 19 | 3.2 | 9.7 | 0.00 | 0.00 | 0.00 | 51 | 1010.9 |
| 20260503051048 | 8 | 273 | 3.2 | 9.7 | 0.00 | 0.00 | 0.00 | 51 | 1010.8 |
| 20260503050948 | 8 | 261 | 3.2 | 9.7 | 0.00 | 0.00 | 0.00 | 51 | 1010.8 |
| 20260503050847 | 8 | 286 | 1.6 | 8.0 | 0.00 | 0.00 | 0.00 | 51 | 1010.8 |
| 20260503050748 | 9 | 288 | 1.6 | 8.0 | 0.00 | 0.00 | 0.00 | 51 | 1010.8 |
| 20260503050645 | 9 | 274 | 3.2 | 8.0 | 0.00 | 0.00 | 0.00 | 51 | 1010.8 |
| 20260503050543 | 9 | 274 | 3.2 | 14.5 | 0.00 | 0.00 | 0.00 | 50 | 1010.8 |
| 20260503050446 | 9 | 274 | 3.2 | 14.5 | 0.00 | 0.00 | 0.00 | 50 | 1010.8 |
| 20260503050344 | 9 | 271 | 3.2 | 14.5 | 0.00 | 0.00 | 0.00 | 50 | 1010.8 |
| 20260503050244 | 9 | 339 | 3.2 | 14.5 | 0.00 | 0.00 | 0.00 | 51 | 1010.8 |
| 20260503050146 | 9 | 9 | 3.2 | 14.5 | 0.00 | 0.00 | 0.00 | 50 | 1010.8 |
| 20260503050042 | 9 | 5 | 3.2 | 14.5 | 0.00 | 0.00 | 0.00 | 50 | 1010.8 |
| 20260503045943 | 9 | 5 | 3.2 | 14.5 | 0.00 | 0.00 | 0.00 | 50 | 1010.8 |
| 20260503045856 | 9 | 5 | 4.8 | 14.5 | 0.00 | 0.00 | 0.00 | 50 | 1010.8 |
| 20260503045639 | 9 | 5 | 4.8 | 14.5 | 0.00 | 0.00 | 0.00 | 50 | 1010.8 |
| 20260503045537 | 9 | 0 | 4.8 | 14.5 | 0.00 | 0.00 | 0.00 | 50 | 1010.8 |
| 20260503045439 | 9 | 0 | 4.8 | 14.5 | 0.00 | 0.00 | 0.00 | 50 | 1010.8 |
| 20260503045339 | 9 | 5 | 4.8 | 14.5 | 0.00 | 0.00 | 0.00 | 50 | 1010.8 |
| 20260503045238 | 9 | 339 | 4.8 | 14.5 | 0.00 | 0.00 | 0.00 | 50 | 1010.8 |
| 20260503045138 | 9 | 329 | 4.8 | 14.5 | 0.00 | 0.00 | 0.00 | 50 | 1010.8 |
| 20260503045112 | 9 | 26 | 4.8 | 14.5 | 0.00 | 0.00 | 0.00 | 50 | 1010.8 |
| 20260503044740 | 9 | 309 | 4.8 | 14.5 | 0.00 | 0.00 | 0.00 | 50 | 1010.8 |
| 20260503044638 | 9 | 329 | 4.8 | 14.5 | 0.00 | 0.00 | 0.00 | 50 | 1010.8 |
| 20260503044538 | 9 | 19 | 3.2 | 14.5 | 0.00 | 0.00 | 0.00 | 50 | 1010.9 |
| 20260503044455 | 9 | 285 | 3.2 | 14.5 | 0.00 | 0.00 | 0.00 | 50 | 1010.8 |
| 20260503044239 | 9 | 15 | 3.2 | 12.9 | 0.00 | 0.00 | 0.00 | 50 | 1010.9 |
| 20260503044154 | 9 | 17 | 3.2 | 11.3 | 0.00 | 0.00 | 0.00 | 50 | 1010.9 |
| 20260503043940 | 9 | 5 | 3.2 | 16.1 | 0.00 | 0.00 | 0.00 | 50 | 1010.9 |
| 20260503043838 | 9 | 15 | 3.2 | 16.1 | 0.00 | 0.00 | 0.00 | 50 | 1010.9 |
| 20260503043739 | 9 | 344 | 3.2 | 16.1 | 0.00 | 0.00 | 0.00 | 50 | 1010.9 |
| 20260503043638 | 9 | 13 | 4.8 | 16.1 | 0.00 | 0.00 | 0.00 | 50 | 1010.9 |
| 20260503043541 | 9 | 300 | 4.8 | 16.1 | 0.00 | 0.00 | 0.00 | 50 | 1010.9 |
| 20260503043437 | 9 | 300 | 6.4 | 16.1 | 0.00 | 0.00 | 0.00 | 50 | 1010.9 |
| 20260503043336 | 9 | 300 | 6.4 | 16.1 | 0.00 | 0.00 | 0.00 | 50 | 1010.9 |
| 20260503043237 | 9 | 269 | 6.4 | 16.1 | 0.00 | 0.00 | 0.00 | 50 | 1011.0 |
| 20260503043136 | 9 | 344 | 6.4 | 16.1 | 0.00 | 0.00 | 0.00 | 50 | 1011.0 |
| 20260503043037 | 9 | 318 | 4.8 | 14.5 | 0.00 | 0.00 | 0.00 | 49 | 1011.0 |
| 20260503042937 | 9 | 311 | 4.8 | 12.9 | 0.00 | 0.00 | 0.00 | 50 | 1011.0 |
| 20260503042836 | 9 | 316 | 4.8 | 12.9 | 0.00 | 0.00 | 0.00 | 49 | 1011.0 |
| 20260503042737 | 9 | 315 | 4.8 | 12.9 | 0.00 | 0.00 | 0.00 | 49 | 1011.0 |
| 20260503042637 | 9 | 20 | 4.8 | 12.9 | 0.00 | 0.00 | 0.00 | 49 | 1011.0 |
| 20260503042537 | 9 | 303 | 4.8 | 12.9 | 0.00 | 0.00 | 0.00 | 49 | 1011.0 |
| 20260503042435 | 9 | 312 | 3.2 | 12.9 | 0.00 | 0.00 | 0.00 | 49 | 1011.0 |
| 20260503042335 | 9 | 326 | 3.2 | 11.3 | 0.00 | 0.00 | 0.00 | 50 | 1011.0 |
| 20260503042232 | 9 | 271 | 3.2 | 11.3 | 0.00 | 0.00 | 0.00 | 50 | 1011.0 |
| 20260503042130 | 9 | 326 | 3.2 | 8.0 | 0.00 | 0.00 | 0.00 | 50 | 1011.0 |
| 20260503042031 | 9 | 338 | 3.2 | 8.0 | 0.00 | 0.00 | 0.00 | 49 | 1011.0 |
| 20260503041930 | 9 | 337 | 3.2 | 8.0 | 0.00 | 0.00 | 0.00 | 49 | 1011.0 |
| 20260503041828 | 9 | 319 | 3.2 | 11.3 | 0.00 | 0.00 | 0.00 | 49 | 1011.0 |
| 20260503041745 | 9 | 343 | 4.8 | 11.3 | 0.00 | 0.00 | 0.00 | 49 | 1011.0 |
| 20260503041529 | 9 | 341 | 4.8 | 12.9 | 0.00 | 0.00 | 0.00 | 49 | 1011.0 |
| 20260503041429 | 9 | 341 | 4.8 | 12.9 | 0.00 | 0.00 | 0.00 | 49 | 1011.0 |
| 20260503041327 | 9 | 341 | 4.8 | 12.9 | 0.00 | 0.00 | 0.00 | 49 | 1011.1 |
| 20260503041224 | 9 | 5 | 4.8 | 12.9 | 0.00 | 0.00 | 0.00 | 49 | 1011.0 |
| 20260503041124 | 9 | 325 | 4.8 | 12.9 | 0.00 | 0.00 | 0.00 | 49 | 1011.0 |
| 20260503041023 | 9 | 314 | 4.8 | 12.9 | 0.00 | 0.00 | 0.00 | 49 | 1011.0 |
| 20260503040923 | 10 | 263 | 4.8 | 12.9 | 0.00 | 0.00 | 0.00 | 49 | 1011.0 |
| 20260503040823 | 9 | 332 | 4.8 | 12.9 | 0.00 | 0.00 | 0.00 | 49 | 1011.1 |
| 20260503040723 | 10 | 326 | 4.8 | 12.9 | 0.00 | 0.00 | 0.00 | 49 | 1011.1 |
| 20260503040622 | 10 | 290 | 4.8 | 11.3 | 0.00 | 0.00 | 0.00 | 49 | 1011.1 |
| 20260503040521 | 10 | 251 | 4.8 | 16.1 | 0.00 | 0.00 | 0.00 | 49 | 1011.1 |
| 20260503040420 | 10 | 348 | 4.8 | 16.1 | 0.00 | 0.00 | 0.00 | 49 | 1011.1 |
| 20260503040319 | 10 | 263 | 4.8 | 16.1 | 0.00 | 0.00 | 0.00 | 49 | 1011.1 |
| 20260503040221 | 10 | 274 | 4.8 | 16.1 | 0.00 | 0.00 | 0.00 | 49 | 1011.0 |
| 20260503040120 | 10 | 265 | 4.8 | 16.1 | 0.00 | 0.00 | 0.00 | 49 | 1011.0 |
| 20260503040021 | 10 | 255 | 4.8 | 16.1 | 0.00 | 0.00 | 0.00 | 49 | 1011.0 |
| 20260503035920 | 10 | 250 | 4.8 | 16.1 | 0.00 | 0.00 | 0.00 | 49 | 1011.0 |
| 20260503035835 | 10 | 0 | 4.8 | 16.1 | 0.00 | 0.00 | 0.00 | 48 | 1011.0 |
| 20260503035619 | 10 | 311 | 3.2 | 16.1 | 0.00 | 0.00 | 0.00 | 48 | 1011.0 |
| 20260503035532 | 10 | 334 | 3.2 | 14.5 | 0.00 | 0.00 | 0.00 | 48 | 1011.0 |
| 20260503035318 | 10 | 302 | 3.2 | 14.5 | 0.00 | 0.00 | 0.00 | 48 | 1011.0 |
| 20260503035230 | 10 | 286 | 4.8 | 14.5 | 0.00 | 0.00 | 0.00 | 48 | 1011.0 |
| 20260503035013 | 10 | 338 | 4.8 | 14.5 | 0.00 | 0.00 | 0.00 | 48 | 1010.9 |
| 20260503034910 | 10 | 338 | 4.8 | 14.5 | 0.00 | 0.00 | 0.00 | 48 | 1010.9 |
| 20260503034810 | 10 | 338 | 4.8 | 14.5 | 0.00 | 0.00 | 0.00 | 48 | 1010.9 |
| 20260503034710 | 10 | 338 | 4.8 | 14.5 | 0.00 | 0.00 | 0.00 | 47 | 1011.0 |
| 20260503034609 | 10 | 321 | 4.8 | 14.5 | 0.00 | 0.00 | 0.00 | 47 | 1010.9 |
| 20260503034508 | 10 | 327 | 4.8 | 14.5 | 0.00 | 0.00 | 0.00 | 47 | 1011.0 |
| 20260503034409 | 10 | 323 | 4.8 | 14.5 | 0.00 | 0.00 | 0.00 | 47 | 1011.0 |
| 20260503034308 | 10 | 319 | 4.8 | 14.5 | 0.00 | 0.00 | 0.00 | 48 | 1011.0 |
| 20260503034206 | 10 | 319 | 4.8 | 14.5 | 0.00 | 0.00 | 0.00 | 47 | 1011.0 |
| 20260503034124 | 10 | 346 | 4.8 | 16.1 | 0.00 | 0.00 | 0.00 | 47 | 1011.0 |
| 20260503033906 | 10 | 304 | 4.8 | 16.1 | 0.00 | 0.00 | 0.00 | 47 | 1010.9 |
| 20260503033823 | 10 | 306 | 4.8 | 16.1 | 0.00 | 0.00 | 0.00 | 48 | 1010.9 |
| 20260503033605 | 10 | 325 | 4.8 | 16.1 | 0.00 | 0.00 | 0.00 | 47 | 1010.9 |
| 20260503033502 | 10 | 294 | 4.8 | 16.1 | 0.00 | 0.00 | 0.00 | 47 | 1010.9 |
| 20260503033404 | 10 | 312 | 4.8 | 16.1 | 0.00 | 0.00 | 0.00 | 47 | 1011.0 |
| 20260503033304 | 10 | 292 | 4.8 | 16.1 | 0.00 | 0.00 | 0.00 | 47 | 1010.9 |
| 20260503033203 | 10 | 293 | 4.8 | 16.1 | 0.00 | 0.00 | 0.00 | 47 | 1010.9 |
| 20260503033119 | 10 | 328 | 4.8 | 12.9 | 0.00 | 0.00 | 0.00 | 47 | 1010.9 |
| 20260503032902 | 10 | 248 | 4.8 | 12.9 | 0.00 | 0.00 | 0.00 | 47 | 1010.9 |
| 20260503032802 | 10 | 284 | 4.8 | 12.9 | 0.00 | 0.00 | 0.00 | 47 | 1010.9 |
| 20260503032702 | 10 | 321 | 4.8 | 12.9 | 0.00 | 0.00 | 0.00 | 47 | 1010.9 |
| 20260503032603 | 10 | 270 | 4.8 | 12.9 | 0.00 | 0.00 | 0.00 | 47 | 1011.0 |
| 20260503032520 | 10 | 288 | 4.8 | 12.9 | 0.00 | 0.00 | 0.00 | 47 | 1011.0 |
| 20260503032319 | 10 | 300 | 3.2 | 11.3 | 0.00 | 0.00 | 0.00 | 48 | 1011.0 |
| 20260503032102 | 10 | 301 | 3.2 | 11.3 | 0.00 | 0.00 | 0.00 | 47 | 1010.9 |
| 20260503032002 | 10 | 290 | 3.2 | 11.3 | 0.00 | 0.00 | 0.00 | 47 | 1010.9 |
| 20260503031902 | 10 | 311 | 3.2 | 11.3 | 0.00 | 0.00 | 0.00 | 47 | 1010.9 |
| 20260503031804 | 10 | 329 | 3.2 | 11.3 | 0.00 | 0.00 | 0.00 | 47 | 1010.9 |
| 20260503031703 | 10 | 349 | 3.2 | 11.3 | 0.00 | 0.00 | 0.00 | 47 | 1010.9 |
| 20260503031602 | 10 | 301 | 3.2 | 9.7 | 0.00 | 0.00 | 0.00 | 47 | 1010.9 |
| 20260503031503 | 10 | 297 | 3.2 | 9.7 | 0.00 | 0.00 | 0.00 | 47 | 1010.9 |
| 20260503031401 | 10 | 278 | 3.2 | 9.7 | 0.00 | 0.00 | 0.00 | 47 | 1010.9 |
| 20260503031300 | 10 | 282 | 3.2 | 9.7 | 0.00 | 0.00 | 0.00 | 47 | 1010.9 |
| 20260503031202 | 10 | 296 | 3.2 | 11.3 | 0.00 | 0.00 | 0.00 | 47 | 1010.9 |
| 20260503031100 | 10 | 306 | 3.2 | 11.3 | 0.00 | 0.00 | 0.00 | 47 | 1010.9 |
| 20260503031016 | 10 | 304 | 3.2 | 11.3 | 0.00 | 0.00 | 0.00 | 46 | 1011.0 |
| 20260503030759 | 10 | 290 | 3.2 | 11.3 | 0.00 | 0.00 | 0.00 | 47 | 1011.0 |
| 20260503030659 | 10 | 312 | 4.8 | 12.9 | 0.00 | 0.00 | 0.00 | 47 | 1011.0 |
| 20260503030613 | 10 | 289 | 4.8 | 16.1 | 0.00 | 0.00 | 0.00 | 47 | 1011.0 |
| 20260503030400 | 10 | 289 | 4.8 | 16.1 | 0.00 | 0.00 | 0.00 | 46 | 1011.1 |
| 20260503030258 | 10 | 308 | 4.8 | 16.1 | 0.00 | 0.00 | 0.00 | 46 | 1011.0 |
| 20260503030201 | 10 | 350 | 4.8 | 16.1 | 0.00 | 0.00 | 0.00 | 46 | 1011.0 |
| 20260503030058 | 10 | 276 | 4.8 | 16.1 | 0.00 | 0.00 | 0.00 | 46 | 1011.1 |
| 20260503025959 | 10 | 324 | 4.8 | 16.1 | 0.00 | 0.00 | 0.00 | 46 | 1011.1 |
| 20260503025859 | 10 | 342 | 4.8 | 16.1 | 0.00 | 0.00 | 0.00 | 46 | 1011.0 |
| 20260503025759 | 10 | 275 | 4.8 | 16.1 | 0.00 | 0.00 | 0.00 | 46 | 1011.0 |
| 20260503025656 | 10 | 313 | 4.8 | 16.1 | 0.00 | 0.00 | 0.00 | 46 | 1011.1 |
| 20260503025557 | 10 | 336 | 4.8 | 16.1 | 0.00 | 0.00 | 0.00 | 46 | 1011.1 |
| 20260503025455 | 10 | 313 | 4.8 | 16.1 | 0.00 | 0.00 | 0.00 | 46 | 1011.1 |
| 20260503025357 | 10 | 259 | 4.8 | 14.5 | 0.00 | 0.00 | 0.00 | 46 | 1011.1 |
| 20260503025309 | 10 | 306 | 4.8 | 14.5 | 0.00 | 0.00 | 0.00 | 46 | 1011.1 |
| 20260503025055 | 10 | 290 | 4.8 | 14.5 | 0.00 | 0.00 | 0.00 | 46 | 1011.1 |
| 20260503024952 | 10 | 307 | 4.8 | 14.5 | 0.00 | 0.00 | 0.00 | 46 | 1011.1 |
| 20260503024850 | 10 | 269 | 3.2 | 14.5 | 0.00 | 0.00 | 0.00 | 46 | 1011.1 |
| 20260503024808 | 10 | 259 | 3.2 | 11.3 | 0.00 | 0.00 | 0.00 | 46 | 1011.1 |
| 20260503024550 | 10 | 312 | 3.2 | 9.7 | 0.00 | 0.00 | 0.00 | 46 | 1011.1 |
| 20260503024449 | 10 | 328 | 3.2 | 9.7 | 0.00 | 0.00 | 0.00 | 47 | 1011.2 |
| 20260503024403 | 10 | 330 | 3.2 | 8.0 | 0.00 | 0.00 | 0.00 | 46 | 1011.2 |
| 20260503024149 | 10 | 298 | 3.2 | 9.7 | 0.00 | 0.00 | 0.00 | 46 | 1011.2 |
| 20260503024050 | 10 | 300 | 3.2 | 9.7 | 0.00 | 0.00 | 0.00 | 46 | 1011.2 |
| 20260503023947 | 10 | 301 | 3.2 | 9.7 | 0.00 | 0.00 | 0.00 | 46 | 1011.2 |
| 20260503023847 | 10 | 309 | 3.2 | 9.7 | 0.00 | 0.00 | 0.00 | 46 | 1011.2 |
| 20260503023746 | 10 | 313 | 3.2 | 9.7 | 0.00 | 0.00 | 0.00 | 46 | 1011.1 |
| 20260503023645 | 10 | 328 | 3.2 | 9.7 | 0.00 | 0.00 | 0.00 | 46 | 1011.1 |
| 20260503023545 | 10 | 340 | 3.2 | 9.7 | 0.00 | 0.00 | 0.00 | 46 | 1011.1 |
| 20260503023444 | 10 | 297 | 3.2 | 9.7 | 0.00 | 0.00 | 0.00 | 47 | 1011.1 |
| 20260503023345 | 10 | 344 | 3.2 | 9.7 | 0.00 | 0.00 | 0.00 | 46 | 1011.1 |
| 20260503023245 | 10 | 341 | 3.2 | 9.7 | 0.00 | 0.00 | 0.00 | 45 | 1011.1 |
| 20260503023145 | 10 | 355 | 3.2 | 11.3 | 0.00 | 0.00 | 0.00 | 46 | 1011.1 |
| 20260503023046 | 10 | 265 | 3.2 | 11.3 | 0.00 | 0.00 | 0.00 | 46 | 1011.1 |
| 20260503022946 | 10 | 309 | 3.2 | 11.3 | 0.00 | 0.00 | 0.00 | 46 | 1011.1 |
| 20260503022845 | 10 | 328 | 3.2 | 11.3 | 0.00 | 0.00 | 0.00 | 46 | 1011.1 |
| 20260503022800 | 10 | 327 | 3.2 | 11.3 | 0.00 | 0.00 | 0.00 | 46 | 1011.1 |
| 20260503022556 | 10 | 327 | 3.2 | 11.3 | 0.00 | 0.00 | 0.00 | 46 | 1011.1 |
| 20260503022341 | 10 | 323 | 4.8 | 11.3 | 0.00 | 0.00 | 0.00 | 45 | 1011.1 |
| 20260503022238 | 10 | 290 | 3.2 | 11.3 | 0.00 | 0.00 | 0.00 | 45 | 1011.1 |
| 20260503022139 | 10 | 317 | 3.2 | 12.9 | 0.00 | 0.00 | 0.00 | 45 | 1011.1 |
| 20260503022038 | 10 | 323 | 3.2 | 12.9 | 0.00 | 0.00 | 0.00 | 45 | 1011.1 |
| 20260503021936 | 11 | 336 | 3.2 | 12.9 | 0.00 | 0.00 | 0.00 | 45 | 1011.1 |
| 20260503021908 | 11 | 306 | 3.2 | 12.9 | 0.00 | 0.00 | 0.00 | 46 | 1011.1 |
| 20260503021534 | 11 | 331 | 3.2 | 12.9 | 0.00 | 0.00 | 0.00 | 45 | 1011.1 |
| 20260503021451 | 11 | 331 | 4.8 | 12.9 | 0.00 | 0.00 | 0.00 | 45 | 1011.1 |
| 20260503021235 | 11 | 312 | 3.2 | 12.9 | 0.00 | 0.00 | 0.00 | 45 | 1011.1 |
| 20260503021135 | 11 | 309 | 3.2 | 12.9 | 0.00 | 0.00 | 0.00 | 45 | 1011.1 |
| 20260503021032 | 11 | 311 | 3.2 | 12.9 | 0.00 | 0.00 | 0.00 | 45 | 1011.1 |
| 20260503020932 | 11 | 311 | 3.2 | 12.9 | 0.00 | 0.00 | 0.00 | 45 | 1011.1 |
| 20260503020833 | 11 | 292 | 3.2 | 12.9 | 0.00 | 0.00 | 0.00 | 45 | 1011.1 |
| 20260503020734 | 11 | 340 | 3.2 | 12.9 | 0.00 | 0.00 | 0.00 | 45 | 1011.2 |
| 20260503020648 | 11 | 326 | 3.2 | 12.9 | 0.00 | 0.00 | 0.00 | 45 | 1011.2 |
| 20260503020448 | 11 | 311 | 3.2 | 12.9 | 0.00 | 0.00 | 0.00 | 45 | 1011.2 |
| 20260503020302 | 11 | 298 | 3.2 | 9.7 | 0.00 | 0.00 | 0.00 | 45 | 1011.1 |
| 20260503015932 | 11 | 281 | 3.2 | 9.7 | 0.00 | 0.00 | 0.00 | 45 | 1011.1 |
| 20260503015829 | 11 | 281 | 3.2 | 9.7 | 0.00 | 0.00 | 0.00 | 45 | 1011.1 |
| 20260503015729 | 11 | 9 | 3.2 | 9.7 | 0.00 | 0.00 | 0.00 | 46 | 1011.2 |
| 20260503015629 | 11 | 319 | 3.2 | 8.0 | 0.00 | 0.00 | 0.00 | 46 | 1011.2 |
| 20260503015529 | 11 | 290 | 3.2 | 8.0 | 0.00 | 0.00 | 0.00 | 45 | 1011.2 |
| 20260503015426 | 11 | 310 | 3.2 | 8.0 | 0.00 | 0.00 | 0.00 | 45 | 1011.2 |
| 20260503015325 | 11 | 313 | 3.2 | 8.0 | 0.00 | 0.00 | 0.00 | 45 | 1011.2 |
| 20260503015226 | 11 | 327 | 3.2 | 8.0 | 0.00 | 0.00 | 0.00 | 45 | 1011.2 |
| 20260503015127 | 11 | 326 | 3.2 | 8.0 | 0.00 | 0.00 | 0.00 | 45 | 1011.2 |
| 20260503015026 | 11 | 308 | 1.6 | 6.4 | 0.00 | 0.00 | 0.00 | 46 | 1011.2 |
| 20260503014926 | 11 | 308 | 1.6 | 6.4 | 0.00 | 0.00 | 0.00 | 46 | 1011.2 |
| 20260503014826 | 11 | 307 | 1.6 | 6.4 | 0.00 | 0.00 | 0.00 | 46 | 1011.3 |
| 20260503014725 | 11 | 308 | 1.6 | 6.4 | 0.00 | 0.00 | 0.00 | 46 | 1011.3 |
| 20260503014625 | 11 | 324 | 1.6 | 6.4 | 0.00 | 0.00 | 0.00 | 47 | 1011.4 |
| 20260503014524 | 11 | 306 | 1.6 | 4.8 | 0.00 | 0.00 | 0.00 | 47 | 1011.3 |
| 20260503014423 | 11 | 324 | 1.6 | 4.8 | 0.00 | 0.00 | 0.00 | 47 | 1011.4 |
| 20260503014323 | 11 | 324 | 1.6 | 4.8 | 0.00 | 0.00 | 0.00 | 46 | 1011.3 |
| 20260503014222 | 11 | 342 | 1.6 | 4.8 | 0.00 | 0.00 | 0.00 | 47 | 1011.3 |
| 20260503014122 | 11 | 338 | 1.6 | 4.8 | 0.00 | 0.00 | 0.00 | 47 | 1011.3 |
| 20260503014020 | 11 | 338 | 1.6 | 4.8 | 0.00 | 0.00 | 0.00 | 46 | 1011.3 |
| 20260503013951 | 11 | 355 | 1.6 | 4.8 | 0.00 | 0.00 | 0.00 | 46 | 1011.2 |
| 20260503013615 | 11 | 327 | 1.6 | 4.8 | 0.00 | 0.00 | 0.00 | 48 | 1011.3 |
| 20260503013529 | 11 | 327 | 1.6 | 4.8 | 0.00 | 0.00 | 0.00 | 47 | 1011.3 |
| 20260503013312 | 11 | 327 | 1.6 | 4.8 | 0.00 | 0.00 | 0.00 | 46 | 1011.3 |
| 20260503013211 | 11 | 327 | 1.6 | 4.8 | 0.00 | 0.00 | 0.00 | 46 | 1011.2 |
| 20260503013110 | 11 | 327 | 1.6 | 4.8 | 0.00 | 0.00 | 0.00 | 45 | 1011.3 |
| 20260503013010 | 11 | 327 | 1.6 | 4.8 | 0.00 | 0.00 | 0.00 | 45 | 1011.3 |
| 20260503012940 | 11 | 327 | 1.6 | 4.8 | 0.00 | 0.00 | 0.00 | 45 | 1011.2 |
| 20260503012606 | 11 | 338 | 1.6 | 8.0 | 0.00 | 0.00 | 0.00 | 45 | 1011.3 |
| 20260503012521 | 11 | 338 | 1.6 | 8.0 | 0.00 | 0.00 | 0.00 | 45 | 1011.3 |
| 20260503012305 | 11 | 338 | 1.6 | 8.0 | 0.00 | 0.00 | 0.00 | 44 | 1011.2 |
| 20260503012203 | 11 | 338 | 1.6 | 8.0 | 0.00 | 0.00 | 0.00 | 44 | 1011.2 |
| 20260503012134 | 11 | 338 | 1.6 | 8.0 | 0.00 | 0.00 | 0.00 | 45 | 1011.2 |
| 20260503011800 | 11 | 333 | 1.6 | 8.0 | 0.00 | 0.00 | 0.00 | 44 | 1011.1 |
| 20260503011700 | 11 | 348 | 1.6 | 8.0 | 0.00 | 0.00 | 0.00 | 45 | 1011.1 |
| 20260503011559 | 11 | 348 | 3.2 | 8.0 | 0.00 | 0.00 | 0.00 | 44 | 1011.2 |
| 20260503011501 | 11 | 348 | 3.2 | 8.0 | 0.00 | 0.00 | 0.00 | 45 | 1011.2 |
| 20260503011401 | 11 | 346 | 1.6 | 8.0 | 0.00 | 0.00 | 0.00 | 44 | 1011.1 |
| 20260503011301 | 11 | 13 | 1.6 | 8.0 | 0.00 | 0.00 | 0.00 | 44 | 1011.2 |
| 20260503011200 | 11 | 9 | 3.2 | 6.4 | 0.00 | 0.00 | 0.00 | 45 | 1011.2 |
| 20260503011100 | 11 | 20 | 3.2 | 6.4 | 0.00 | 0.00 | 0.00 | 45 | 1011.1 |
| 20260503011015 | 11 | 20 | 3.2 | 6.4 | 0.00 | 0.00 | 0.00 | 45 | 1011.2 |
| 20260503010759 | 11 | 13 | 3.2 | 6.4 | 0.00 | 0.00 | 0.00 | 45 | 1011.2 |
| 20260503010659 | 11 | 351 | 3.2 | 8.0 | 0.00 | 0.00 | 0.00 | 44 | 1011.2 |
| 20260503010626 | 11 | 351 | 3.2 | 8.0 | 0.00 | 0.00 | 0.00 | 44 | 1011.1 |
| 20260503010256 | 11 | 355 | 3.2 | 8.0 | 0.00 | 0.00 | 0.00 | 45 | 1011.1 |
| 20260503010156 | 11 | 348 | 3.2 | 8.0 | 0.00 | 0.00 | 0.00 | 45 | 1011.1 |
| 20260503010057 | 11 | 17 | 3.2 | 8.0 | 0.00 | 0.00 | 0.00 | 45 | 1011.0 |
| 20260503005956 | 11 | 17 | 3.2 | 9.7 | 0.00 | 0.00 | 0.00 | 44 | 1011.0 |
| 20260503005912 | 11 | 327 | 3.2 | 9.7 | 0.00 | 0.00 | 0.00 | 44 | 1011.0 |
| 20260503005656 | 11 | 51 | 3.2 | 9.7 | 0.00 | 0.00 | 0.00 | 45 | 1011.0 |
| 20260503005627 | 11 | 347 | 3.2 | 9.7 | 0.00 | 0.00 | 0.00 | 45 | 1010.9 |
| 20260503005313 | 11 | 329 | 3.2 | 9.7 | 0.00 | 0.00 | 0.00 | 45 | 1010.9 |
| 20260503005111 | 11 | 319 | 1.6 | 9.7 | 0.00 | 0.00 | 0.00 | 44 | 1010.9 |